OKPUS EDDH-EDHL

Flight info

Callsign OKPUS
Flight time 0h 33m
Altitude
Route VFR
Aircraft C152

Departure

Time 2026-04-25 18:30
Airport Hamburg Helmut Schmidt Airport (EDDH)

Arrival

Time 2026-04-25 19:03
Airport Lübeck Blankensee Airport (EDHL)
Time Latitude Longitude Altitude Speed Heading
2026-04-25 18:20 53.62700 9.98734 40 ft 0 kts 60°
2026-04-25 18:26 53.62729 9.98721 40 ft 10 kts 332°
2026-04-25 18:27 53.62788 9.98748 41 ft 13 kts 51°
2026-04-25 18:27 53.62853 9.98882 41 ft 15 kts 51°
2026-04-25 18:27 53.62924 9.99023 41 ft 17 kts 51°
2026-04-25 18:27 53.62996 9.99170 42 ft 12 kts 50°
2026-04-25 18:28 53.63052 9.99266 42 ft 8 kts 28°
2026-04-25 18:28 53.63075 9.99284 42 ft 6 kts 24°
2026-04-25 18:28 53.63176 9.99331 43 ft 23 kts 14°
2026-04-25 18:29 53.63742 9.98994 70 ft 77 kts 334°
2026-04-25 18:29 53.64246 9.98586 222 ft 82 kts 335°
2026-04-25 18:30 53.65733 9.98815 653 ft 93 kts 86°
2026-04-25 18:30 53.65462 9.99761 791 ft 92 kts 136°
2026-04-25 18:30 53.64943 10.00395 931 ft 92 kts 151°
2026-04-25 18:30 53.64384 10.00937 1072 ft 92 kts 152°
2026-04-25 18:31 53.63829 10.01465 1211 ft 90 kts 155°
2026-04-25 18:31 53.63255 10.01880 1353 ft 90 kts 161°
2026-04-25 18:31 53.62673 10.02260 1487 ft 90 kts 156°
2026-04-25 18:31 53.62163 10.02838 1629 ft 90 kts 145°
2026-04-25 18:32 53.61655 10.03451 1769 ft 90 kts 146°
2026-04-25 18:32 53.61146 10.04124 1841 ft 96 kts 140°
2026-04-25 18:32 53.60667 10.04948 1882 ft 101 kts 133°
2026-04-25 18:32 53.60191 10.05848 1899 ft 104 kts 134°
2026-04-25 18:33 53.59702 10.06734 1956 ft 103 kts 135°
2026-04-25 18:33 53.59211 10.07614 1983 ft 104 kts 132°
2026-04-25 18:33 53.58776 10.08593 1994 ft 105 kts 126°
2026-04-25 18:33 53.58364 10.09616 2001 ft 106 kts 124°
2026-04-25 18:34 53.57981 10.10681 2003 ft 107 kts 122°
2026-04-25 18:34 53.57602 10.11760 2004 ft 107 kts 122°
2026-04-25 18:34 53.57225 10.12826 2003 ft 107 kts 122°
2026-04-25 18:34 53.56841 10.13903 2005 ft 106 kts 122°
2026-04-25 18:35 53.56445 10.14942 2006 ft 105 kts 126°
2026-04-25 18:35 53.56089 10.15990 2001 ft 104 kts 99°
2026-04-25 18:35 53.56259 10.17155 2004 ft 104 kts 68°
2026-04-25 18:35 53.56550 10.18266 2004 ft 104 kts 65°
2026-04-25 18:36 53.56846 10.19375 2006 ft 104 kts 66°
2026-04-25 18:36 53.57130 10.20494 2005 ft 104 kts 68°
2026-04-25 18:36 53.57401 10.21601 2003 ft 104 kts 68°
2026-04-25 18:36 53.57675 10.22723 2003 ft 103 kts 68°
2026-04-25 18:37 53.57953 10.23838 2001 ft 103 kts 67°
2026-04-25 18:37 53.58231 10.24947 2000 ft 103 kts 67°
2026-04-25 18:37 53.58508 10.26057 1998 ft 102 kts 68°
2026-04-25 18:37 53.58773 10.27133 1999 ft 98 kts 68°
2026-04-25 18:38 53.59034 10.28184 1998 ft 96 kts 67°
2026-04-25 18:38 53.59284 10.29189 2085 ft 90 kts 67°
2026-04-25 18:38 53.59529 10.30158 2206 ft 90 kts 67°
2026-04-25 18:38 53.59772 10.31134 2314 ft 92 kts 68°
2026-04-25 18:39 53.60017 10.32146 2362 ft 97 kts 68°
2026-04-25 18:39 53.60278 10.33223 2387 ft 101 kts 68°
2026-04-25 18:39 53.60551 10.34326 2401 ft 103 kts 67°
2026-04-25 18:39 53.60832 10.35453 2406 ft 105 kts 67°
2026-04-25 18:40 53.61116 10.36598 2410 ft 106 kts 67°
2026-04-25 18:40 53.61398 10.37744 2410 ft 106 kts 67°
2026-04-25 18:40 53.61680 10.38891 2408 ft 106 kts 67°
2026-04-25 18:40 53.61963 10.40040 2410 ft 106 kts 67°
2026-04-25 18:41 53.62250 10.41193 2411 ft 107 kts 67°
2026-04-25 18:41 53.62536 10.42346 2406 ft 106 kts 67°
2026-04-25 18:41 53.62815 10.43480 2403 ft 106 kts 67°
2026-04-25 18:41 53.63098 10.44626 2404 ft 106 kts 67°
2026-04-25 18:42 53.63380 10.45774 2401 ft 106 kts 68°
2026-04-25 18:42 53.63475 10.46160 2404 ft 106 kts 67°
2026-04-25 18:42 53.63943 10.48062 2403 ft 106 kts 67°
2026-04-25 18:42 53.64227 10.49217 2402 ft 106 kts 67°
2026-04-25 18:43 53.64505 10.50349 2409 ft 106 kts 67°
2026-04-25 18:43 53.64786 10.51499 2407 ft 106 kts 68°
2026-04-25 18:43 53.65061 10.52623 2402 ft 101 kts 67°
2026-04-25 18:43 53.65326 10.53696 2402 ft 98 kts 67°
2026-04-25 18:44 53.65587 10.54748 2397 ft 96 kts 67°
2026-04-25 18:44 53.65843 10.55789 2399 ft 95 kts 66°
2026-04-25 18:44 53.66098 10.56822 2294 ft 94 kts 67°
2026-04-25 18:44 53.66341 10.57822 2122 ft 90 kts 67°
2026-04-25 18:45 53.66572 10.58777 1999 ft 84 kts 67°
2026-04-25 18:45 53.66782 10.59644 1940 ft 76 kts 66°
2026-04-25 18:45 53.66988 10.60467 1910 ft 84 kts 66°
2026-04-25 18:45 53.67228 10.61436 1917 ft 93 kts 67°
2026-04-25 18:46 53.67465 10.62436 1909 ft 90 kts 67°
2026-04-25 18:46 53.67700 10.63422 1906 ft 91 kts 67°
2026-04-25 18:46 53.67938 10.64400 1905 ft 89 kts 66°
2026-04-25 18:46 53.68173 10.65345 1899 ft 86 kts 66°
2026-04-25 18:47 53.68401 10.66261 1897 ft 84 kts 66°
2026-04-25 18:47 53.68623 10.67163 1898 ft 83 kts 66°
2026-04-25 18:47 53.68840 10.68060 1902 ft 82 kts 67°
2026-04-25 18:47 53.69053 10.68944 1900 ft 82 kts 67°
2026-04-25 18:48 53.69269 10.69833 1900 ft 82 kts 67°
2026-04-25 18:48 53.69485 10.70720 1898 ft 81 kts 67°
2026-04-25 18:48 53.69701 10.71606 1908 ft 82 kts 66°
2026-04-25 18:48 53.69919 10.72499 1907 ft 82 kts 65°
2026-04-25 18:49 53.70367 10.72951 1907 ft 80 kts 356°
2026-04-25 18:49 53.70930 10.72884 1897 ft 81 kts 352°
2026-04-25 18:49 53.71496 10.72764 1908 ft 82 kts 351°
2026-04-25 18:49 53.72067 10.72640 1901 ft 83 kts 352°
2026-04-25 18:50 53.72449 10.72586 1902 ft 83 kts 355°
2026-04-25 18:50 53.73219 10.72538 1899 ft 82 kts 356°
2026-04-25 18:50 53.73597 10.72519 1895 ft 82 kts 356°
2026-04-25 18:50 53.74168 10.72480 1900 ft 82 kts 355°
2026-04-25 18:51 53.74739 10.72426 1901 ft 82 kts 355°
2026-04-25 18:51 53.75118 10.72385 1902 ft 82 kts 355°
2026-04-25 18:51 53.75883 10.72317 1903 ft 82 kts 356°
2026-04-25 18:51 53.76457 10.72275 1902 ft 83 kts 356°
2026-04-25 18:52 53.77050 10.72228 1908 ft 87 kts 355°
2026-04-25 18:52 53.77669 10.72172 1907 ft 91 kts 355°
2026-04-25 18:52 53.78298 10.72121 1882 ft 94 kts 356°
2026-04-25 18:52 53.78942 10.72256 1693 ft 97 kts 33°
2026-04-25 18:53 53.79283 10.73212 1517 ft 91 kts 63°
2026-04-25 18:53 53.79551 10.74183 1335 ft 93 kts 67°
2026-04-25 18:53 53.79760 10.75184 1200 ft 88 kts 75°
2026-04-25 18:53 53.79869 10.76169 1150 ft 76 kts 82°
2026-04-25 18:54 53.80233 10.77795 1024 ft 78 kts 22°
2026-04-25 18:54 53.80764 10.77874 906 ft 78 kts 351°
2026-04-25 18:54 53.81214 10.77462 834 ft 75 kts 300°
2026-04-25 18:55 53.81278 10.76623 788 ft 74 kts 269°
2026-04-25 18:55 53.81235 10.75809 656 ft 69 kts 259°
2026-04-25 18:55 53.81115 10.75019 481 ft 68 kts 254°
2026-04-25 18:55 53.80974 10.74277 387 ft 68 kts 253°
2026-04-25 18:56 53.80839 10.73530 268 ft 65 kts 253°
2026-04-25 18:56 53.80703 10.72818 128 ft 63 kts 253°
2026-04-25 18:56 53.80557 10.72074 238 ft 70 kts 252°
2026-04-25 18:56 53.80396 10.71247 384 ft 77 kts 251°
2026-04-25 18:57 53.80231 10.70399 521 ft 77 kts 252°
2026-04-25 18:57 53.80060 10.69523 663 ft 79 kts 253°
2026-04-25 18:57 53.79704 10.68866 773 ft 86 kts 191°
2026-04-25 18:57 53.79286 10.68961 787 ft 93 kts 169°
2026-04-25 18:58 53.78696 10.69832 878 ft 96 kts 93°
2026-04-25 18:58 53.79057 10.71914 1075 ft 91 kts 71°
2026-04-25 18:58 53.79267 10.72918 1182 ft 91 kts 70°
2026-04-25 18:59 53.79675 10.74876 1192 ft 88 kts 72°
2026-04-25 18:59 53.79984 10.76883 1089 ft 91 kts 79°
2026-04-25 19:00 53.80133 10.78797 923 ft 72 kts 73°
2026-04-25 19:00 53.80549 10.79211 720 ft 75 kts 353°
2026-04-25 19:01 53.81394 10.78569 572 ft 68 kts 284°
2026-04-25 19:01 53.81424 10.77756 570 ft 69 kts 270°
2026-04-25 19:01 53.81399 10.76956 609 ft 69 kts 263°
2026-04-25 19:01 53.81314 10.76145 585 ft 70 kts 257°
2026-04-25 19:02 53.81049 10.74617 371 ft 64 kts 253°
2026-04-25 19:02 53.80917 10.73907 260 ft 63 kts 252°
2026-04-25 19:02 53.80768 10.73169 174 ft 66 kts 253°
2026-04-25 19:03 53.80556 10.72049 52 ft 51 kts 250°
2026-04-25 19:03 53.80430 10.71395 53 ft 40 kts 252°
2026-04-25 19:03 53.80343 10.70942 53 ft 41 kts 252°
2026-04-25 19:04 53.80384 10.70516 56 ft 8 kts 324°
2026-04-25 19:04 53.80395 10.70503 56 ft 8 kts 327°
2026-04-25 19:05 53.80427 10.70468 56 ft 0 kts 322°
2026-04-25 19:06 53.80473 10.70409 56 ft 16 kts 325°
2026-04-25 19:06 53.80588 10.70374 56 ft 3 kts 72°
2026-04-25 19:06 53.80580 10.70436 56 ft 0 kts 116°